Wind_Speed
32 32 32 32 32 32 32 32 31 31 30 30 30 28 26 25 23 21 20 19 18 17 16 16 15 15 13 12 11 11 10 10 9 9 9 9 9 8 7 7 8 8 8 8 8 9 9 9 9 9 9 9 10 12 13 14 16 17 20 21 21 24 23 20 18 20 20 18 19 20 21 21 22 23 23 23 24 24 24 24 27 30 34 37 40 41 41 43
35 35 35 35 35 35 34 34 34 33 33 33 32 31 29 28 26 25 23 22 21 20 19 19 19 18 17 16 15 14 13 12 12 11 10 10 10 10 10 9 9 9 9 8 8 8 9 9 9 10 10 10 10 10 11 11 12 13 14 15 17 19 19 17 15 16 17 16 16 17 19 20 21 22 21 21 21 21 22 21 22 22 24 28 31 34 37 40
37 37 37 37 37 37 37 37 37 36 36 35 35 34 32 31 29 28 27 25 24 23 22 22 22 22 21 20 19 18 17 16 15 14 12 12 12 11 11 11 11 11 10 10 9 9 9 9 10 10 10 10 11 11 11 11 12 13 13 14 15 16 16 16 14 16 17 16 16 17 18 20 21 21 19 19 19 20 20 20 20 19 21 23 24 27 30 35
40 40 40 40 40 40 40 40 39 39 38 38 37 36 35 34 32 31 30 29 27 26 25 25 24 25 24 24 23 22 21 20 19 17 15 15 14 13 13 13 13 13 12 12 11 11 11 11 11 11 11 11 12 12 12 12 12 13 14 14 15 15 13 13 16 19 18 16 16 17 18 20 20 19 18 18 18 18 18 18 18 17 20 21 22 24 27 30
44 44 44 43 43 43 43 43 42 41 41 40 40 39 37 36 35 34 33 32 31 29 28 27 27 27 27 27 27 26 25 24 23 21 19 18 18 17 16 16 16 15 14 14 13 13 14 14 13 13 13 13 13 13 13 13 13 13 14 15 15 16 15 14 15 17 16 16 17 17 18 18 17 18 17 17 17 17 17 17 17 18 19 20 21 23 25 26
47 47 47 47 47 46 46 46 45 44 44 43 42 41 40 39 38 37 36 35 34 33 31 30 30 30 29 29 29 29 29 28 27 26 24 22 21 20 19 19 19 18 17 17 16 16 16 15 15 15 15 15 15 14 15 14 14 14 15 15 15 16 17 16 15 15 16 17 17 17 17 16 15 16 16 15 17 17 17 16 16 18 18 18 20 22 22 22
50 50 49 49 49 49 49 48 48 47 46 46 45 44 43 42 41 40 39 38 37 36 35 33 33 32 32 32 32 32 31 31 31 30 28 27 26 24 22 22 22 21 21 20 19 18 18 18 18 18 17 17 16 16 17 17 17 16 16 16 16 16 16 16 15 16 17 18 18 18 18 17 16 15 15 16 16 16 17 16 14 16 16 17 19 20 20 19
52 52 52 52 52 52 51 51 50 50 49 48 48 47 46 45 44 43 41 41 40 39 38 36 36 35 34 34 34 34 34 34 33 33 33 31 30 28 26 25 25 25 24 22 21 20 20 21 21 20 20 19 18 19 19 19 19 18 17 17 17 17 17 17 17 16 17 19 20 20 19 18 16 16 16 16 16 15 16 15 14 15 16 17 18 18 18 18
54 54 54 54 54 54 53 53 52 52 51 51 50 50 48 47 46 45 44 43 42 42 41 39 39 38 37 36 37 36 36 36 34 35 35 34 33 32 30 29 28 28 26 25 24 23 23 23 22 22 21 20 22 23 22 22 21 19 19 19 18 18 18 18 18 17 18 21 21 20 20 18 17 17 17 16 16 16 14 14 14 15 16 16 16 16 17 17
56 56 56 56 56 55 55 54 54 53 53 53 52 52 51 49 49 48 47 46 45 44 43 42 41 41 40 39 39 38 38 38 36 36 37 37 36 34 34 33 31 30 29 28 27 26 25 24 24 23 22 24 26 25 24 23 21 21 21 21 20 20 19 19 18 18 20 21 21 21 21 19 18 18 18 17 17 16 14 14 15 14 14 14 15 15 15 16
57 57 57 57 57 57 56 56 55 55 54 54 54 53 52 51 51 50 49 48 47 46 45 44 43 43 42 41 42 40 40 40 39 38 38 39 38 37 37 36 35 33 32 31 30 29 27 26 25 25 26 27 27 26 25 24 23 23 23 22 21 21 21 20 20 20 21 21 22 21 21 20 18 19 19 18 18 17 15 14 11 10 13 13 13 12 12 14
58 58 58 58 58 58 57 57 56 56 55 55 55 55 54 54 53 52 51 50 49 48 46 45 44 44 43 44 44 41 42 43 41 40 40 40 40 39 39 38 37 35 34 33 33 32 30 29 27 28 30 29 29 28 26 25 25 25 24 22 22 22 22 22 21 22 22 22 23 23 22 21 19 19 20 19 18 17 16 12 10 10 11 11 11 11 12 12
59 59 59 59 59 59 59 58 58 58 58 57 57 57 57 56 55 54 53 52 51 49 48 46 45 45 44 46 44 42 45 45 42 42 42 41 41 41 41 40 39 38 37 36 35 34 33 31 30 31 31 31 31 30 29 28 26 26 25 24 24 24 24 23 23 24 24 24 25 25 24 23 21 20 20 19 18 17 15 11 11 13 9 9 12 13 13 12
61 61 61 61 61 62 61 61 61 61 60 60 60 59 59 58 57 56 54 53 52 51 49 48 47 45 46 47 44 43 47 47 44 43 43 42 42 42 42 42 41 40 39 37 36 36 35 34 33 33 33 34 33 31 32 31 27 27 27 26 26 26 26 25 25 25 26 26 26 27 26 24 22 21 21 20 18 17 15 11 12 14 10 10 12 13 14 12
64 64 64 64 64 64 64 64 64 63 62 62 61 61 60 59 58 57 55 54 53 52 51 49 48 47 47 48 45 45 47 48 47 44 43 44 44 44 44 44 43 43 41 40 39 38 37 36 36 35 35 35 34 33 34 33 30 30 29 29 29 28 27 27 27 28 28 28 29 29 28 26 23 23 23 21 18 16 15 12 12 13 10 9 9 10 13 11
66 66 66 66 66 66 66 65 65 65 64 63 62 62 61 60 59 58 57 56 55 54 52 51 50 49 49 49 48 47 47 49 49 46 45 46 47 46 45 45 45 45 44 42 41 40 39 38 38 38 37 36 35 35 36 34 32 32 32 32 32 31 29 29 30 31 30 30 31 32 30 27 25 25 24 21 18 15 14 13 12 12 10 10 9 8 11 11
67 67 68 67 67 68 67 67 67 66 66 65 64 64 63 62 61 60 59 58 57 56 55 54 53 51 51 52 51 49 48 50 51 48 48 49 48 48 46 47 47 46 45 44 43 43 42 41 41 40 39 37 37 37 36 36 36 36 36 35 34 33 31 30 32 32 31 33 34 33 31 29 27 27 26 23 19 15 14 13 11 11 11 12 11 8 9 11
71 71 71 70 70 70 70 70 70 69 69 68 67 67 66 66 64 62 61 61 60 59 58 56 55 54 54 54 54 51 50 52 53 51 51 51 50 49 49 49 48 48 47 46 46 46 45 44 43 42 40 39 39 38 39 41 41 39 38 37 35 33 32 32 34 34 34 35 36 34 34 31 29 28 27 24 21 16 13 12 12 12 11 12 11 9 10 11
74 74 75 74 74 74 74 74 74 73 73 72 71 70 70 70 68 65 65 65 64 63 62 58 58 59 58 57 58 55 53 54 55 54 53 53 52 51 51 51 50 50 49 49 49 48 47 46 44 43 43 43 43 42 44 45 42 39 39 38 36 34 33 34 35 35 35 37 37 36 36 33 30 30 28 25 22 18 14 13 14 13 12 13 12 10 10 10
78 78 78 78 78 78 78 78 77 77 77 76 76 75 74 74 73 70 69 70 68 66 65 62 62 64 62 61 62 58 57 58 58 57 56 55 54 53 54 53 52 52 52 52 51 50 49 47 46 47 46 46 45 45 47 46 41 40 40 40 38 37 36 36 37 37 37 39 39 38 38 36 32 31 29 27 25 21 16 14 15 14 14 14 12 10 10 11
81 81 81 81 81 81 81 81 81 80 80 80 79 79 77 77 77 74 72 73 72 71 69 67 66 67 66 66 66 63 62 62 61 59 59 58 57 56 56 56 54 55 55 55 54 51 49 48 49 51 49 48 47 47 47 46 42 42 42 42 41 39 38 39 40 40 39 40 41 40 39 38 36 33 30 29 26 23 19 17 16 16 15 14 13 12 11 11
85 85 85 86 85 85 85 85 84 84 83 83 82 82 81 80 80 78 76 75 76 75 73 71 69 69 72 71 68 68 66 65 64 63 62 60 59 58 59 58 57 58 58 56 54 52 49 52 55 53 51 49 48 48 47 46 45 44 44 44 43 42 42 42 41 42 41 40 42 42 38 38 40 37 32 29 27 25 21 19 18 16 14 15 14 13 12 11
88 89 89 89 90 89 89 89 89 88 88 87 86 86 85 84 82 81 79 76 78 79 76 74 73 72 75 74 71 70 70 69 67 65 64 63 62 62 62 60 59 60 59 57 55 54 53 57 58 54 52 50 49 48 48 48 47 45 46 46 46 46 45 44 43 44 44 43 44 43 40 41 43 39 33 29 29 27 23 20 20 18 16 15 15 13 12 12
88 89 89 90 91 91 91 92 92 92 91 91 90 90 89 88 86 85 83 79 78 82 81 78 77 76 76 78 76 72 71 72 70 67 66 66 66 65 63 62 62 61 59 59 58 56 57 60 58 54 51 50 50 50 49 49 48 48 48 48 49 49 47 46 44 44 45 45 44 44 42 42 42 38 36 33 31 29 26 22 20 20 18 17 16 14 14 15
89 89 90 90 91 92 91 92 93 93 92 92 92 93 92 92 91 89 87 84 80 83 86 83 80 80 81 82 78 73 73 74 72 70 68 68 68 67 66 64 63 61 60 61 60 58 60 60 57 55 53 53 53 52 51 50 50 49 49 49 51 51 48 47 45 44 44 44 44 44 41 41 42 41 41 38 32 30 28 25 22 21 20 19 17 15 14 16
91 91 91 92 92 92 92 92 92 92 92 92 92 92 93 92 92 91 90 88 84 85 89 87 85 85 86 84 81 78 77 76 75 74 71 70 70 70 69 66 64 63 63 64 63 60 61 60 58 57 56 55 54 53 52 52 51 50 50 51 52 50 48 47 44 43 43 44 45 43 40 40 42 44 43 39 35 33 30 27 24 22 22 22 18 15 14 15
95 96 95 95 95 95 95 94 93 93 92 92 91 91 91 91 91 91 90 89 88 87 89 90 89 89 89 88 85 82 79 77 79 78 73 72 73 72 71 67 66 65 66 66 62 59 61 62 60 59 58 57 55 54 54 53 51 51 52 51 51 50 47 46 45 44 43 45 46 43 39 40 41 42 42 40 38 36 32 30 28 24 24 24 20 17 16 15
97 97 98 97 97 97 97 96 96 95 94 93 93 91 91 91 90 90 90 89 90 90 89 91 92 91 91 90 88 85 83 82 83 82 79 77 77 76 74 70 69 69 69 67 62 62 66 65 62 61 61 59 57 56 56 54 52 52 52 50 49 48 45 45 45 43 43 45 43 41 41 39 37 39 42 44 42 38 34 33 30 27 25 24 21 19 18 16
95 96 96 96 96 96 96 96 96 96 96 95 94 93 93 92 91 91 91 90 92 93 91 91 93 93 92 90 88 87 86 85 83 85 85 81 79 79 77 74 74 73 73 69 65 68 70 67 65 64 62 60 59 59 57 54 53 52 50 48 47 46 44 44 44 43 44 43 40 40 41 37 36 39 43 46 44 39 37 36 32 29 27 25 23 21 19 18
94 94 95 94 94 94 93 93 93 93 94 93 93 93 92 92 92 94 94 94 96 98 94 92 93 92 91 90 89 89 88 87 85 87 87 83 80 80 80 79 78 76 75 72 70 71 72 70 67 64 62 61 60 60 57 53 52 51 48 46 46 44 44 44 44 44 44 39 38 41 41 39 39 41 44 46 44 43 41 38 34 31 28 26 25 22 21 19
95 94 94 94 94 93 92 92 92 91 91 91 91 90 89 90 90 92 94 96 101 104 100 96 93 90 91 91 89 89 89 89 88 87 86 83 80 80 81 80 79 77 76 73 71 71 73 70 66 63 62 61 61 59 55 52 51 50 47 47 46 44 44 44 43 43 40 38 41 45 46 43 41 44 48 48 46 46 44 38 35 33 29 27 26 23 22 20
94 94 94 94 94 94 93 92 91 90 90 89 89 89 89 89 87 88 91 95 102 106 102 98 93 90 91 91 89 89 89 89 89 87 85 84 82 80 80 79 77 76 73 71 70 70 70 67 64 63 61 61 60 57 54 52 51 49 48 47 45 44 44 43 42 41 40 42 44 46 47 41 40 49 52 49 48 49 45 39 37 35 31 28 27 25 23 21
94 94 94 93 93 92 92 92 91 90 89 88 88 88 89 89 88 89 91 96 103 101 96 93 91 90 92 92 92 92 91 90 91 90 87 86 85 82 82 80 79 77 73 73 74 72 70 69 67 63 61 60 59 55 53 51 51 49 48 46 45 44 43 42 41 42 42 43 43 44 43 38 41 49 49 47 49 50 46 41 38 36 32 30 28 26 23 21
94 94 94 93 92 91 91 90 89 88 87 86 85 86 87 88 89 91 94 101 101 93 89 89 87 87 91 93 95 96 95 95 95 94 90 88 87 85 84 83 81 78 77 77 76 74 73 70 66 63 61 61 59 55 53 53 53 50 49 49 47 45 44 42 42 43 42 42 42 41 40 38 41 45 45 46 48 48 46 42 39 37 34 32 31 28 25 23
94 94 94 93 92 91 91 89 88 87 86 84 83 83 85 86 89 93 98 102 98 89 87 87 85 85 88 91 96 99 100 100 99 98 94 91 89 87 85 84 82 81 80 79 76 74 73 68 65 66 65 63 61 58 57 57 55 52 52 50 46 45 46 43 42 42 41 40 39 38 38 40 41 42 43 43 44 46 46 43 41 40 37 34 32 30 27 24
93 93 94 94 92 92 91 90 89 87 86 83 82 82 84 86 89 95 99 97 90 85 84 84 85 87 88 90 96 100 103 105 104 101 97 92 89 87 87 86 85 83 82 79 76 75 73 69 69 70 68 64 62 61 61 59 56 55 52 47 46 49 47 41 40 40 39 37 37 38 40 41 40 40 42 42 42 44 45 45 44 41 38 35 34 33 28 25
89 90 91 92 92 91 91 91 90 89 87 85 82 82 84 87 90 95 96 91 83 80 79 82 87 90 89 92 96 101 105 107 106 101 97 94 92 90 89 88 88 86 83 81 80 78 75 72 72 72 69 65 64 65 65 62 58 55 50 48 51 51 44 37 36 38 37 36 37 39 40 40 39 39 42 43 42 43 45 47 46 42 38 35 34 34 31 29
85 85 87 88 89 89 90 90 90 89 88 87 85 84 85 88 90 93 93 89 84 82 81 82 87 89 90 94 98 103 104 102 100 99 99 99 98 96 95 93 91 89 86 85 83 81 77 76 76 73 70 68 67 69 67 60 57 52 49 51 52 46 39 35 34 35 36 37 39 40 41 41 39 40 43 42 41 44 47 47 45 42 38 35 36 36 33 32
81 81 82 84 84 85 86 86 87 87 86 86 85 85 86 88 91 93 93 91 88 87 84 84 87 89 91 96 100 103 100 97 98 99 101 102 102 101 100 97 95 94 91 88 85 82 79 78 77 73 71 72 71 69 63 56 54 52 50 52 48 41 38 36 35 36 37 38 40 42 41 41 41 42 41 38 38 42 46 46 45 43 41 38 39 39 36 35
76 75 76 77 77 78 79 79 80 80 80 80 81 81 82 85 89 93 95 94 91 90 89 89 90 90 93 97 100 101 99 97 98 96 97 101 103 103 102 100 99 96 90 86 83 80 78 77 77 74 75 75 69 63 58 54 54 53 51 50 46 41 41 39 36 35 36 38 42 42 42 42 41 38 36 34 36 39 42 44 46 47 46 44 43 42 40 38
69 70 70 70 70 70 71 71 72 72 72 72 73 73 74 77 82 87 91 92 92 92 93 93 93 93 95 97 100 101 98 96 97 95 96 101 104 103 102 101 100 95 89 86 83 81 80 78 77 76 76 72 62 58 59 58 56 55 54 52 49 47 46 42 37 35 36 40 42 43 44 42 37 34 34 34 35 38 39 42 46 49 49 48 46 45 42 39
62 63 64 64 64 63 63 64 64 64 65 65 65 65 65 68 73 77 81 86 90 93 94 97 98 98 98 99 101 101 98 96 97 97 99 105 106 102 99 99 98 94 91 89 86 86 86 82 79 79 75 68 62 63 65 63 61 60 58 55 52 51 48 44 39 37 39 42 43 46 46 39 33 34 37 35 35 37 38 40 47 51 51 50 49 47 43 41
56 57 57 58 59 58 58 59 58 58 58 58 58 58 58 60 64 68 72 77 84 89 94 99 103 104 103 102 101 99 96 97 98 97 99 106 107 100 94 94 95 93 91 91 90 91 91 86 82 81 76 70 69 70 68 67 64 61 59 55 51 50 48 45 43 42 42 45 45 47 45 38 35 37 35 32 33 36 37 39 46 52 53 52 52 50 46 43
51 52 52 53 53 53 53 54 55 54 54 54 54 53 52 53 57 61 65 69 75 82 90 99 104 106 106 103 100 97 95 96 97 96 100 108 106 97 92 93 93 92 92 91 91 91 90 85 81 80 78 74 73 71 70 69 63 58 58 55 51 51 51 49 47 45 46 48 47 48 47 41 38 37 33 30 31 35 37 39 44 51 54 54 54 53 48 45
47 47 48 49 49 49 49 50 51 50 49 50 51 50 49 49 51 55 59 63 67 74 83 93 101 106 106 104 101 100 98 96 97 99 104 109 104 94 91 91 92 91 90 90 90 89 88 85 82 81 81 77 73 70 68 67 62 58 58 56 53 54 53 51 49 46 47 49 49 49 48 42 38 38 35 32 31 32 36 39 43 49 53 54 55 53 50 49
44 43 44 45 46 46 46 46 46 46 45 45 46 48 47 46 47 51 55 57 61 68 77 86 96 103 106 106 103 103 102 99 100 103 107 108 100 91 88 89 90 89 87 87 90 90 88 86 83 81 80 78 74 70 70 71 68 64 61 58 57 56 55 54 50 48 48 50 49 51 50 44 41 40 37 34 33 33 35 38 41 46 51 54 54 54 53 52
43 41 41 42 43 44 43 42 42 42 41 40 41 44 44 43 44 47 51 54 57 63 71 80 89 97 103 106 105 104 103 102 104 107 109 106 98 89 87 88 90 89 87 88 91 90 90 88 84 80 79 79 76 75 77 77 73 67 63 62 60 59 58 55 52 50 51 51 51 51 51 46 44 42 39 38 37 37 37 39 40 44 48 52 54 57 56 54
42 41 39 38 40 41 40 40 40 39 38 36 36 39 40 39 41 44 47 50 54 59 65 74 83 91 98 103 104 105 105 105 107 110 110 106 97 89 88 90 90 88 89 90 91 91 91 90 86 83 82 82 80 78 77 75 72 68 66 63 62 62 60 57 56 54 52 52 53 52 51 49 47 46 45 42 40 38 38 39 40 42 44 49 55 59 59 57
41 40 38 36 36 37 36 36 37 37 36 34 32 35 36 35 37 41 43 47 51 55 61 69 78 85 93 99 102 105 106 107 110 112 111 106 98 91 88 90 89 88 90 92 91 90 90 89 88 87 87 86 84 79 76 74 72 70 67 65 64 63 61 60 61 58 54 54 55 53 52 50 48 49 49 45 40 37 37 38 39 41 43 48 54 59 61 59
40 38 37 36 35 34 32 33 33 34 34 32 30 31 32 31 32 37 40 43 48 52 58 66 73 80 87 94 98 103 105 107 110 112 111 107 99 92 89 89 89 90 91 93 91 88 87 89 90 90 89 87 83 80 77 74 71 69 68 68 66 65 64 63 63 59 56 56 58 56 53 51 50 50 51 47 41 38 37 36 38 41 42 45 50 57 59 59
40 37 35 35 34 33 31 30 31 31 31 30 28 28 29 27 28 33 37 40 45 50 55 61 68 75 81 88 94 98 101 105 108 110 111 107 100 93 90 90 91 91 91 92 90 87 87 89 88 88 87 85 82 81 79 76 74 73 71 68 63 62 63 63 62 60 58 59 60 58 55 53 52 52 53 51 45 39 38 38 38 40 41 42 47 53 57 58
39 37 35 33 33 32 31 29 28 29 28 27 25 25 26 25 25 29 33 37 42 47 51 57 63 70 76 83 89 93 96 101 106 109 110 107 100 95 93 92 91 90 91 91 89 88 88 86 85 86 86 85 85 84 82 80 78 75 70 66 63 63 65 66 65 62 60 61 61 59 57 56 55 55 55 55 48 41 40 41 39 39 41 42 44 48 53 57
Wind_Direction
247 249 250 250 251 252 254 255 256 257 257 257 256 255 254 254 253 250 249 247 245 244 244 244 242 236 232 229 224 216 210 205 197 192 189 180 180 188 191 190 188 184 183 180 179 177 175 176 179 184 189 198 207 214 218 222 226 228 230 230 234 241 245 251 259 265 271 275 278 283 286 289 292 291 290 289 287 286 287 285 279 273 270 269 268 270 271 270
248 248 250 250 252 253 254 255 255 255 256 255 255 254 254 253 253 251 248 247 245 243 242 244 244 242 237 233 232 228 223 216 207 202 203 196 188 193 200 202 202 199 197 195 193 192 190 190 191 193 197 203 209 214 216 216 219 222 226 226 227 235 237 239 254 265 266 268 274 282 288 291 289 286 288 291 293 296 298 296 290 285 281 278 274 272 271 271
248 249 250 251 252 253 254 254 255 255 255 255 255 254 254 254 254 253 250 248 245 243 242 242 243 243 242 238 235 234 231 227 219 208 207 212 203 199 206 208 209 208 206 204 203 202 201 202 202 204 206 210 215 219 222 222 222 225 228 228 225 231 238 239 253 265 263 267 278 283 285 286 285 284 288 294 299 303 302 300 296 292 289 285 280 276 272 271
249 250 250 251 252 253 254 254 255 255 255 255 255 255 255 255 255 254 253 250 248 245 243 242 241 242 243 241 239 237 235 233 230 220 213 217 215 209 212 213 212 210 208 209 209 207 208 209 209 211 213 214 218 221 225 227 227 227 229 231 228 233 242 245 254 260 262 271 280 282 282 282 284 288 294 298 302 305 303 303 299 292 290 287 281 278 275 274
250 250 251 252 252 253 254 254 255 255 256 256 255 255 255 255 256 256 255 254 252 248 245 243 242 241 242 242 241 240 238 236 236 231 223 222 222 219 218 218 216 211 208 210 212 212 212 214 214 215 217 218 219 222 227 229 231 230 230 233 232 232 234 243 256 262 265 273 276 279 282 284 287 293 299 301 303 305 301 299 296 292 292 288 279 276 277 277
251 251 252 253 253 253 254 255 255 255 256 256 256 256 256 256 256 256 257 257 255 252 249 247 244 242 242 242 242 241 241 239 238 237 233 229 228 226 225 226 223 217 213 212 212 215 215 215 218 220 221 221 222 225 229 233 234 234 235 237 237 235 237 246 257 263 268 273 276 277 281 283 288 295 298 300 304 305 300 296 295 297 296 288 281 279 283 286
252 253 253 253 254 254 255 255 255 256 256 257 257 257 257 257 257 257 257 257 257 255 253 250 248 245 243 243 242 242 242 241 240 239 238 235 233 231 230 232 232 226 221 218 216 217 219 217 219 222 225 225 226 228 232 235 238 239 241 242 243 242 244 249 254 262 267 273 277 276 279 281 286 291 293 297 303 304 301 297 295 297 293 285 283 284 289 293
253 254 254 255 255 255 256 256 256 257 257 257 257 257 257 258 258 258 257 257 257 257 256 254 251 248 246 245 244 243 242 241 240 241 241 238 236 235 233 234 236 236 231 227 224 221 223 223 221 223 226 228 230 231 233 237 239 241 244 246 247 247 247 249 253 260 265 272 277 277 278 281 286 290 292 297 303 305 301 295 295 298 296 291 288 286 288 295
255 255 255 256 256 257 257 257 258 258 258 258 258 258 258 258 258 258 258 257 257 257 256 255 254 251 248 247 246 244 243 242 240 241 242 240 238 237 236 235 237 239 239 236 233 228 227 229 229 228 228 230 233 232 233 237 239 242 245 247 248 249 251 251 254 256 260 269 276 278 279 283 289 292 295 300 304 305 297 292 298 304 304 295 287 284 283 293
256 256 257 257 257 258 258 258 259 259 259 259 259 259 259 259 258 259 258 258 257 256 256 255 254 253 251 249 247 245 244 244 241 240 241 242 241 238 237 236 236 238 240 241 239 236 234 233 235 236 233 232 235 236 235 237 239 242 243 246 248 250 253 255 257 256 259 268 274 278 281 284 290 293 297 300 303 306 297 295 302 308 312 301 290 287 284 292
258 258 258 258 259 259 259 259 259 259 259 259 259 259 259 259 259 258 258 258 257 256 255 254 253 252 252 250 248 246 246 245 242 240 240 241 242 241 239 237 236 236 238 242 242 241 240 238 238 239 238 237 239 241 240 239 240 242 243 246 249 252 255 257 260 262 264 269 273 278 281 285 290 294 297 298 302 306 302 300 301 306 312 306 297 292 290 294
259 259 259 259 259 259 259 259 259 259 259 259 259 259 259 259 259 259 258 258 257 256 255 253 252 251 251 250 249 247 246 245 243 241 240 240 241 242 242 240 238 237 236 239 242 243 242 242 241 239 240 242 245 246 245 244 243 245 247 249 251 253 256 257 261 264 266 270 274 277 281 284 288 292 294 296 300 305 306 299 288 297 300 298 305 307 304 305
260 259 259 260 260 260 259 259 259 259 259 259 260 260 260 260 259 259 258 258 257 256 254 252 251 250 248 249 248 246 246 246 244 242 240 240 240 241 243 243 242 240 238 238 240 243 244 243 242 241 243 245 248 250 250 249 249 251 253 252 252 253 255 257 261 265 267 270 274 276 278 280 283 289 291 293 298 303 305 292 287 303 296 290 311 321 320 317
260 260 260 260 260 260 260 260 260 260 260 260 260 260 260 259 259 259 258 257 256 255 253 252 250 249 247 247 246 244 246 247 244 242 242 241 240 240 242 243 244 243 242 240 240 242 244 245 244 243 244 246 249 252 254 254 253 253 254 253 253 254 256 258 260 263 265 267 270 272 274 276 281 286 286 289 295 300 302 292 298 311 302 294 310 323 326 321
260 261 260 260 260 261 261 260 260 260 260 260 260 260 259 259 258 258 257 256 255 254 252 251 249 248 247 246 244 242 244 247 245 243 242 242 241 240 240 242 243 244 244 244 243 242 244 246 246 245 245 247 251 252 253 255 256 255 256 255 254 254 256 258 259 261 263 266 268 270 272 275 279 281 283 286 292 300 300 295 307 311 302 302 305 314 319 315
260 260 260 260 260 260 260 260 260 259 259 259 259 258 258 258 257 257 256 255 254 253 252 251 249 247 246 246 243 241 243 245 246 243 242 241 241 241 241 242 243 243 244 245 245 245 245 245 246 247 247 248 248 249 252 256 257 256 255 254 254 255 257 258 260 262 264 265 266 268 271 273 275 276 279 282 286 293 293 296 309 305 295 302 301 299 305 307
260 260 260 260 260 260 260 259 259 259 259 258 258 257 257 257 256 256 255 255 254 253 252 251 250 248 247 246 244 241 241 244 245 243 242 242 242 243 242 243 243 244 244 245 246 246 246 246 246 247 249 249 249 250 252 253 253 253 253 254 256 258 260 260 261 264 265 265 266 269 271 272 272 274 276 278 280 283 285 291 296 290 287 294 296 292 294 299
261 261 260 260 260 260 260 259 259 259 259 258 257 257 257 256 255 255 255 255 254 253 252 251 251 250 248 248 246 242 240 242 244 243 243 243 242 243 243 244 245 245 246 246 246 246 246 246 247 249 249 249 249 249 248 248 250 253 255 258 259 262 263 262 263 265 266 265 266 267 268 268 269 272 273 275 276 274 279 282 277 279 281 281 283 282 286 291
261 261 261 260 260 260 260 260 259 259 259 258 258 257 257 257 256 255 255 255 254 253 253 252 252 252 250 249 248 245 242 243 244 243 243 244 243 243 244 245 246 247 247 247 246 246 247 247 248 248 247 247 249 249 249 251 255 257 259 261 262 263 264 263 263 264 264 264 264 265 264 264 264 267 268 269 269 267 269 271 270 273 271 270 275 278 286 288
262 261 261 261 260 260 259 259 259 259 259 259 258 257 257 257 257 255 255 255 254 253 253 252 252 252 251 251 250 247 245 245 244 244 243 244 244 244 245 245 246 247 247 247 247 247 248 249 248 247 246 248 250 251 253 256 258 259 260 261 261 261 261 261 261 261 262 263 263 261 262 261 260 261 264 263 263 264 262 258 261 268 266 266 273 274 279 281
262 262 261 261 260 260 259 259 259 259 258 258 258 258 257 257 257 256 255 256 255 254 253 252 252 253 252 251 251 250 248 247 246 245 245 245 245 245 246 246 246 247 247 246 247 248 249 249 247 246 247 249 250 252 255 257 258 259 260 261 261 261 260 260 261 261 260 260 261 260 260 261 258 255 257 258 258 259 260 256 256 263 266 264 265 268 271 272
263 262 262 261 260 260 259 259 259 258 258 257 257 257 257 256 256 256 255 256 257 255 254 253 252 253 253 251 251 251 250 248 248 247 247 246 246 246 246 246 246 246 246 247 248 248 248 247 246 247 249 250 251 253 255 257 258 258 260 262 263 262 261 261 261 261 260 257 257 259 257 257 256 252 251 254 255 253 254 256 257 259 261 257 255 264 273 270
263 262 262 261 260 260 259 259 258 258 257 257 257 257 257 256 255 256 255 255 257 256 254 254 252 251 253 252 250 250 251 250 248 248 248 248 247 246 246 246 246 246 247 248 248 247 245 245 247 249 251 251 252 252 254 256 257 259 260 262 263 262 262 262 262 261 261 258 257 258 254 250 252 252 249 249 250 249 246 248 255 258 257 251 248 257 265 262
262 262 261 261 260 259 259 258 258 257 257 257 257 256 256 256 255 255 254 253 255 257 255 253 252 251 252 252 249 249 250 250 249 248 249 249 248 247 246 246 246 246 247 247 247 246 245 247 249 251 251 251 251 252 253 255 256 257 259 261 262 263 264 265 264 263 262 261 259 260 256 250 249 250 248 246 245 246 244 239 245 255 257 249 246 252 254 251
263 263 262 261 261 260 258 258 258 257 256 256 256 256 256 256 255 254 254 253 252 254 255 253 252 251 250 251 250 249 249 250 249 248 247 248 248 248 246 246 246 247 247 246 246 245 246 248 249 250 249 249 250 251 253 254 256 258 260 262 262 264 266 266 266 264 263 262 260 258 257 251 246 245 246 245 242 243 242 237 236 247 255 248 243 252 255 252
265 264 263 262 262 261 260 258 258 258 257 256 255 256 256 255 255 254 253 253 250 250 253 253 251 251 251 250 250 248 248 248 249 247 246 247 248 248 247 246 246 246 245 245 245 245 247 248 248 249 249 249 250 252 253 254 256 258 259 260 262 265 266 266 266 263 260 259 256 255 253 248 245 244 245 244 241 239 239 237 232 236 248 247 244 250 253 250
267 266 265 264 263 262 262 260 259 258 258 257 256 255 255 255 255 255 253 252 250 248 249 251 251 250 250 250 249 248 248 248 248 247 246 245 246 247 247 246 245 245 244 244 245 246 247 247 247 248 249 250 251 252 253 254 256 257 258 259 262 265 266 265 263 260 258 256 255 254 250 246 245 244 243 242 240 238 237 235 230 229 238 244 244 244 244 245
269 268 267 266 265 264 263 263 261 260 259 258 257 256 255 255 254 255 254 252 251 249 248 249 249 249 249 249 249 248 247 246 247 247 245 243 244 245 245 245 244 244 244 244 244 245 245 246 246 247 248 249 251 252 253 255 257 257 258 261 263 263 263 261 260 259 256 255 255 254 248 243 242 240 238 240 240 237 235 234 230 228 233 239 243 243 241 243
269 269 268 267 267 266 265 264 263 263 261 260 258 257 256 255 254 254 253 253 252 250 247 247 247 248 247 248 248 248 247 246 246 247 246 244 244 245 245 244 244 243 244 244 244 245 246 247 247 248 249 251 252 253 255 257 257 257 259 260 260 259 258 256 256 255 253 253 252 249 245 239 235 235 235 237 239 237 234 233 229 228 231 235 238 240 241 240
271 270 269 269 268 267 266 265 264 263 263 261 260 258 257 255 254 254 253 252 252 251 248 246 246 247 247 247 247 247 247 246 244 245 246 245 244 245 245 244 244 244 245 245 244 246 247 247 248 249 251 252 252 254 256 256 256 256 256 255 254 253 252 252 252 251 252 251 246 242 240 233 228 230 232 233 235 234 232 231 228 226 228 231 232 235 238 235
273 272 272 271 270 269 268 266 265 263 262 262 261 259 258 256 254 253 253 252 252 250 248 246 245 246 247 247 247 247 247 246 245 244 246 245 243 243 244 244 245 245 246 247 247 247 248 249 250 250 250 251 251 253 254 253 252 252 252 250 249 248 248 248 249 250 250 244 239 239 241 237 228 225 226 227 228 231 231 228 227 225 225 228 232 234 235 235
276 275 274 273 272 271 270 268 267 265 263 262 261 260 258 257 254 253 252 251 250 250 248 247 245 245 247 248 248 247 247 247 247 245 245 245 244 243 244 244 244 244 244 245 245 245 246 247 247 246 246 248 249 250 250 249 248 248 248 247 247 247 247 247 248 249 247 242 241 243 246 245 234 228 230 228 225 228 229 225 224 224 222 224 230 235 237 238
277 277 275 274 274 272 271 270 268 266 264 262 261 259 258 257 255 253 251 249 248 248 249 248 246 245 245 246 247 246 245 245 246 244 242 242 242 241 241 241 241 241 240 240 239 239 240 241 241 241 243 245 246 247 247 247 246 246 246 246 247 246 246 246 246 245 245 243 243 244 246 244 234 233 238 236 229 227 227 224 222 222 221 220 224 233 238 240
279 278 277 276 274 273 272 270 269 267 265 262 260 259 258 257 255 253 251 249 248 247 248 248 246 245 244 244 244 245 244 243 243 243 241 240 240 240 240 240 240 240 239 238 239 239 239 240 241 242 242 243 244 244 243 243 243 244 244 245 245 245 245 244 244 244 244 244 244 243 242 238 232 233 237 236 232 229 226 224 221 219 219 218 220 227 234 238
279 279 278 277 275 274 272 271 269 267 265 262 259 258 257 255 254 253 251 249 247 245 245 245 245 244 243 242 242 242 242 242 241 241 241 239 239 239 239 239 239 239 239 239 239 240 241 241 241 240 239 239 240 240 240 240 241 242 242 244 245 247 245 243 243 245 246 247 244 240 237 235 233 232 232 232 232 230 226 223 219 218 219 218 219 223 227 236
280 279 278 277 276 275 274 272 270 268 265 262 259 257 255 253 252 252 251 250 248 246 244 244 243 242 241 240 240 240 239 239 239 238 239 239 239 238 239 239 238 237 237 237 238 238 239 239 239 239 239 238 239 240 240 240 240 240 242 244 245 245 245 242 243 246 248 248 244 238 236 235 233 231 231 228 226 225 225 223 219 216 218 219 220 222 224 231
280 279 278 277 276 275 274 272 271 268 266 263 259 256 254 252 251 251 252 251 250 247 244 242 241 240 239 239 239 238 238 238 237 237 237 237 237 237 237 237 237 236 236 236 235 235 235 235 236 237 238 238 238 239 239 239 239 241 242 243 243 245 246 245 244 247 249 248 242 238 238 236 232 232 232 227 223 220 221 223 220 215 215 219 222 224 223 228
281 280 279 278 277 275 274 272 271 269 266 263 260 256 254 252 251 250 250 250 249 246 242 239 239 239 238 237 238 238 238 238 238 237 236 235 234 234 233 234 234 234 233 234 234 233 233 233 234 234 235 235 235 236 238 238 240 242 242 243 244 247 248 245 245 247 246 244 242 240 239 235 230 231 231 227 223 219 218 221 219 214 213 218 224 224 223 227
283 281 280 279 277 276 274 273 271 269 267 264 261 257 254 251 250 249 248 246 244 243 240 238 236 236 235 236 237 237 237 237 237 236 236 235 233 233 232 232 232 232 231 231 232 232 232 233 234 234 234 234 233 235 237 238 241 241 240 243 245 246 245 243 244 246 245 244 243 241 239 235 230 230 231 229 225 222 221 219 217 212 209 214 223 223 222 225
285 283 281 279 278 277 275 274 272 270 268 265 262 259 255 251 248 247 246 244 241 240 238 237 235 233 232 233 235 236 236 235 236 236 236 237 235 234 233 232 232 232 232 233 234 234 234 234 234 234 233 234 235 237 239 238 239 239 239 241 242 241 241 242 244 246 246 245 244 243 241 237 232 232 233 230 226 224 223 220 217 213 207 209 217 220 220 221
288 286 283 281 279 278 276 274 273 271 269 266 263 260 256 252 249 246 244 242 240 238 237 236 235 232 231 231 232 234 234 234 234 234 234 236 235 234 233 233 233 232 231 231 232 234 234 235 235 235 235 236 236 236 237 235 234 235 235 235 236 236 236 236 238 240 240 240 241 243 241 236 232 232 232 227 222 221 221 218 217 215 210 208 213 217 218 219
289 287 286 284 282 280 278 276 274 272 270 267 264 261 257 253 249 246 243 240 238 236 234 234 233 232 230 229 229 230 230 231 232 231 232 234 234 232 232 233 234 233 231 230 229 229 230 230 231 234 234 234 233 232 233 232 230 230 231 231 231 233 233 232 232 232 233 236 237 240 239 233 229 230 229 224 220 219 218 216 215 215 212 209 211 214 216 219
292 289 288 286 285 283 281 279 276 274 272 269 266 262 257 253 249 246 242 238 235 233 231 231 231 231 230 228 228 228 228 229 230 230 231 233 233 232 230 231 232 232 231 231 229 229 229 228 227 230 231 229 229 229 230 231 229 229 231 231 230 233 234 232 229 225 228 232 235 239 239 232 227 230 228 223 220 218 217 216 216 215 213 210 212 212 211 216
295 293 290 288 287 285 282 280 278 276 274 272 268 264 258 253 249 246 242 237 234 231 229 228 229 230 229 227 226 226 226 227 229 229 230 233 232 230 229 229 230 229 229 230 230 231 232 231 229 230 230 229 228 229 230 232 231 230 232 233 232 233 234 233 230 225 226 231 234 238 240 233 228 230 229 224 221 219 217 216 216 217 214 211 212 212 208 213
298 296 294 291 289 287 284 282 280 277 275 272 270 266 260 254 249 245 241 237 232 229 227 226 227 228 229 227 225 224 224 224 226 228 230 232 231 228 228 228 228 228 227 227 229 231 232 233 231 230 231 230 229 230 232 235 234 232 233 233 232 233 234 234 231 226 226 230 234 238 240 237 231 230 230 228 225 222 220 218 217 217 215 211 213 212 209 211
302 300 298 296 293 290 287 284 282 279 275 272 269 266 262 255 249 245 241 236 231 227 225 225 225 226 227 227 224 222 221 221 223 226 228 231 230 227 226 228 228 229 228 226 226 228 229 230 230 230 232 232 229 227 228 230 229 228 229 230 231 231 232 232 231 226 224 227 231 236 239 238 235 232 230 229 227 223 223 221 218 218 216 212 212 213 211 211
306 304 302 300 297 294 292 289 286 283 278 273 269 265 261 256 249 244 240 236 231 226 224 223 224 224 225 225 224 222 220 219 221 224 227 228 228 224 223 225 226 226 226 225 225 226 226 227 227 227 229 232 230 227 225 227 227 226 225 226 226 228 228 229 230 226 223 222 226 232 236 237 237 234 231 229 227 223 224 224 220 219 218 213 211 214 213 211
310 308 306 303 299 296 295 294 291 287 282 277 271 266 261 255 249 244 239 235 230 226 223 222 223 223 224 224 223 222 220 218 219 222 225 226 225 222 221 222 223 223 224 224 223 223 225 225 224 223 224 226 227 227 228 229 229 227 226 226 226 226 226 226 227 225 220 220 223 228 233 235 236 236 233 229 227 224 224 225 223 221 219 215 212 214 215 212
315 312 311 308 302 299 298 296 293 290 286 281 274 268 262 255 249 244 239 234 231 226 223 221 221 222 223 223 223 221 220 218 218 221 223 223 222 220 219 220 221 221 222 224 223 222 222 223 224 223 223 223 224 223 225 228 229 228 227 226 226 226 225 223 224 223 218 218 221 225 229 232 234 237 236 230 227 227 226 226 226 224 221 217 214 215 216 214
319 317 317 313 307 305 304 300 295 292 288 284 278 271 265 256 248 244 239 234 231 227 223 221 221 221 221 222 222 222 220 218 218 219 221 222 220 218 218 219 219 219 220 222 223 222 221 222 222 223 223 223 223 223 222 225 228 229 228 226 224 224 224 223 223 222 218 217 219 222 226 229 232 236 238 233 226 227 228 226 225 226 223 220 218 217 216 216
323 323 323 318 314 313 310 306 300 295 292 288 283 275 267 258 248 244 239 234 230 228 225 222 221 221 221 222 222 222 220 218 218 218 219 220 218 216 216 217 218 218 218 220 221 220 220 221 222 223 224 224 224 223 222 221 223 225 227 227 226 225 225 225 225 223 219 217 219 220 223 226 229 232 237 235 226 224 229 226 223 225 223 221 220 219 217 217
328 329 328 323 320 319 316 312 306 301 297 293 288 280 272 263 253 245 240 235 231 228 226 223 222 221 221 221 222 222 220 219 218 217 217 218 217 215 215 217 217 216 217 218 218 218 220 221 221 222 223 223 223 222 222 221 220 222 224 225 225 224 222 223 224 222 218 217 219 219 221 224 226 229 234 236 228 221 226 227 222 222 223 222 222 221 217 217
Height
10961 10961 10962 10962 10962 10963 10963 10963 10964 10965 10965 10965 10966 10967 10968 10969 10970 10971 10971 10972 10973 10974 10975 10976 10976 10977 10977 10978 10978 10978 10978 10978 10978 10979 10979 10980 10980 10981 10981 10982 10983 10983 10984 10984 10985 10985 10986 10987 10987 10988 10988 10989 10989 10990 10991 10992 10993 10993 10993 10995 10996 10996 10997 10997 10997 10998 10999 10999 10998 10998 10996 10996 10996 10995 10996 10995 10994 10993 10992 10991 10989 10988 10987 10986 10985 10985 10985 10984
10958 10958 10959 10959 10959 10960 10960 10961 10961 10962 10962 10962 10963 10964 10965 10966 10967 10968 10969 10970 10971 10972 10973 10974 10974 10975 10976 10977 10977 10977 10977 10977 10978 10978 10979 10979 10980 10980 10981 10981 10982 10982 10983 10984 10984 10985 10985 10986 10986 10987 10987 10988 10988 10989 10990 10991 10991 10992 10992 10993 10995 10995 10996 10997 10997 10997 10998 10997 10997 10996 10995 10994 10994 10994 10994 10994 10992 10991 10990 10989 10987 10986 10984 10983 10983 10982 10982 10981
10955 10955 10955 10956 10956 10956 10957 10957 10958 10959 10959 10960 10960 10961 10962 10964 10965 10965 10966 10967 10969 10970 10971 10972 10972 10973 10974 10975 10976 10976 10976 10976 10977 10977 10978 10978 10979 10979 10980 10980 10981 10982 10982 10983 10984 10984 10985 10985 10986 10986 10987 10987 10987 10988 10989 10990 10990 10991 10991 10992 10993 10994 10995 10995 10996 10996 10996 10996 10995 10994 10994 10993 10993 10993 10993 10992 10991 10990 10989 10987 10985 10984 10983 10981 10980 10980 10979 10978
10951 10952 10952 10952 10952 10953 10953 10954 10955 10955 10956 10957 10957 10958 10960 10961 10961 10962 10963 10964 10966 10967 10968 10969 10970 10971 10971 10972 10973 10974 10974 10975 10975 10976 10977 10977 10978 10978 10978 10979 10980 10980 10981 10982 10983 10983 10984 10984 10985 10985 10986 10986 10987 10987 10988 10988 10989 10990 10990 10991 10992 10993 10993 10993 10994 10994 10994 10994 10993 10993 10992 10992 10991 10991 10991 10990 10989 10989 10988 10986 10984 10982 10981 10980 10979 10978 10977 10976
10947 10948 10948 10948 10949 10949 10950 10950 10951 10952 10953 10953 10954 10955 10956 10957 10958 10959 10960 10961 10962 10964 10965 10966 10967 10968 10969 10969 10971 10971 10972 10973 10974 10974 10975 10976 10976 10977 10977 10978 10978 10979 10980 10981 10981 10982 10983 10983 10984 10984 10985 10985 10986 10986 10987 10987 10988 10989 10989 10990 10991 10991 10991 10992 10992 10992 10991 10991 10992 10991 10991 10991 10990 10990 10989 10988 10988 10987 10986 10985 10983 10981 10980 10979 10978 10976 10975 10974
10943 10944 10944 10944 10945 10945 10946 10946 10947 10948 10949 10950 10950 10951 10953 10954 10955 10956 10957 10958 10958 10960 10962 10963 10964 10965 10966 10966 10968 10968 10969 10970 10971 10972 10973 10974 10974 10975 10976 10976 10976 10977 10978 10979 10980 10980 10981 10982 10982 10983 10983 10984 10984 10985 10985 10986 10986 10987 10988 10988 10989 10990 10990 10990 10990 10989 10989 10989 10989 10990 10989 10989 10990 10989 10988 10987 10987 10986 10984 10984 10981 10979 10978 10977 10976 10974 10973 10972
10939 10939 10940 10940 10940 10941 10942 10942 10943 10944 10945 10945 10946 10947 10949 10950 10951 10952 10954 10954 10955 10956 10958 10960 10960 10961 10962 10963 10964 10965 10966 10967 10968 10969 10970 10971 10972 10973 10974 10974 10974 10975 10976 10977 10978 10979 10979 10980 10981 10981 10982 10982 10983 10984 10984 10984 10985 10985 10986 10987 10988 10988 10988 10988 10988 10987 10987 10987 10988 10988 10988 10988 10989 10989 10988 10987 10987 10985 10983 10983 10981 10978 10978 10976 10974 10973 10971 10971
10934 10935 10935 10935 10936 10936 10937 10938 10938 10939 10940 10941 10941 10942 10944 10946 10947 10948 10949 10950 10952 10952 10954 10955 10956 10957 10959 10959 10960 10961 10962 10963 10965 10965 10966 10968 10969 10970 10971 10972 10972 10973 10974 10975 10976 10977 10977 10978 10979 10980 10980 10981 10981 10982 10982 10982 10983 10983 10984 10985 10986 10986 10987 10987 10987 10986 10986 10986 10986 10986 10986 10986 10987 10987 10986 10986 10986 10985 10982 10981 10980 10978 10977 10975 10973 10971 10970 10970
10929 10929 10930 10930 10930 10931 10932 10933 10933 10934 10935 10935 10936 10937 10939 10941 10942 10943 10945 10946 10947 10948 10950 10951 10952 10953 10955 10955 10956 10957 10958 10959 10961 10962 10962 10964 10965 10967 10968 10969 10969 10970 10971 10972 10974 10975 10975 10976 10977 10978 10979 10979 10979 10979 10980 10980 10981 10982 10982 10982 10983 10984 10985 10985 10986 10985 10985 10984 10985 10984 10984 10985 10985 10985 10985 10984 10984 10984 10982 10980 10979 10978 10976 10974 10972 10970 10969 10969
10923 10924 10925 10925 10925 10926 10927 10927 10928 10929 10929 10930 10931 10932 10933 10935 10937 10938 10939 10941 10942 10944 10945 10946 10948 10948 10950 10951 10951 10953 10954 10955 10957 10958 10958 10959 10961 10963 10964 10965 10966 10967 10968 10969 10970 10971 10973 10974 10974 10975 10976 10976 10976 10977 10978 10979 10980 10980 10980 10981 10981 10982 10982 10983 10984 10984 10984 10983 10983 10982 10982 10983 10983 10983 10983 10983 10983 10983 10982 10980 10978 10976 10975 10973 10971 10970 10969 10968
10918 10918 10919 10919 10919 10920 10921 10922 10922 10923 10924 10924 10925 10926 10928 10929 10931 10932 10934 10935 10937 10939 10940 10942 10943 10944 10945 10946 10946 10949 10950 10950 10952 10954 10954 10955 10956 10958 10959 10961 10963 10964 10965 10965 10966 10968 10970 10971 10972 10973 10972 10973 10973 10975 10976 10977 10978 10978 10978 10979 10979 10980 10980 10981 10981 10981 10981 10981 10980 10980 10980 10981 10982 10981 10982 10982 10982 10982 10981 10979 10978 10976 10975 10973 10971 10970 10969 10968
10912 10912 10913 10913 10913 10914 10915 10915 10916 10917 10918 10918 10919 10920 10921 10923 10924 10926 10928 10929 10931 10933 10935 10936 10938 10939 10941 10940 10941 10945 10945 10945 10948 10950 10950 10951 10952 10954 10954 10956 10958 10960 10962 10962 10963 10964 10966 10967 10970 10969 10968 10970 10971 10972 10974 10975 10975 10976 10976 10977 10978 10978 10978 10978 10979 10979 10979 10979 10978 10978 10979 10980 10981 10980 10980 10980 10980 10981 10980 10979 10978 10976 10975 10972 10971 10970 10969 10968
10905 10906 10906 10907 10907 10907 10908 10909 10909 10910 10911 10912 10913 10914 10915 10917 10918 10919 10922 10923 10925 10926 10928 10931 10932 10934 10935 10934 10937 10941 10938 10939 10944 10945 10946 10947 10948 10949 10950 10951 10953 10955 10957 10959 10960 10960 10962 10964 10965 10966 10966 10967 10968 10969 10971 10972 10973 10974 10974 10975 10976 10975 10975 10976 10976 10976 10976 10977 10976 10976 10977 10978 10979 10979 10979 10979 10979 10979 10979 10978 10977 10976 10974 10972 10970 10969 10968 10967
10899 10899 10900 10900 10900 10900 10901 10902 10902 10903 10905 10905 10906 10907 10908 10910 10911 10913 10915 10916 10918 10920 10922 10925 10926 10928 10929 10928 10933 10935 10932 10934 10938 10939 10941 10942 10944 10945 10946 10946 10948 10949 10951 10954 10956 10957 10957 10959 10961 10962 10963 10963 10964 10966 10967 10968 10971 10971 10972 10973 10973 10973 10973 10974 10974 10974 10974 10975 10974 10974 10975 10976 10977 10978 10977 10977 10978 10978 10978 10977 10976 10975 10973 10972 10970 10968 10967 10966
10891 10892 10892 10893 10893 10892 10893 10894 10895 10895 10897 10898 10899 10900 10901 10903 10904 10906 10908 10910 10912 10913 10916 10918 10920 10922 10922 10923 10928 10929 10927 10929 10931 10935 10937 10937 10939 10940 10941 10942 10943 10944 10946 10948 10950 10952 10954 10955 10956 10958 10959 10959 10961 10963 10962 10965 10968 10968 10969 10970 10970 10971 10971 10972 10972 10971 10972 10973 10972 10971 10973 10975 10976 10975 10975 10975 10976 10976 10976 10976 10975 10973 10972 10972 10970 10968 10967 10966
10884 10884 10884 10885 10885 10884 10885 10886 10887 10887 10889 10890 10891 10892 10894 10895 10897 10899 10901 10903 10905 10906 10909 10911 10913 10916 10916 10917 10921 10923 10924 10923 10925 10930 10931 10931 10932 10934 10936 10937 10938 10940 10941 10944 10945 10947 10949 10950 10952 10953 10954 10956 10958 10958 10958 10962 10964 10964 10965 10966 10966 10968 10969 10969 10969 10969 10970 10970 10969 10969 10970 10973 10974 10973 10973 10974 10974 10975 10975 10975 10974 10972 10971 10971 10970 10969 10968 10967
10876 10876 10876 10877 10877 10877 10877 10878 10878 10879 10880 10882 10883 10884 10886 10887 10889 10892 10894 10895 10898 10899 10902 10904 10906 10910 10910 10910 10913 10918 10920 10917 10919 10923 10923 10925 10927 10929 10931 10932 10933 10935 10937 10939 10941 10942 10944 10946 10947 10948 10950 10952 10953 10954 10956 10957 10958 10959 10960 10962 10963 10965 10966 10967 10966 10966 10967 10967 10966 10967 10968 10970 10971 10970 10971 10972 10972 10973 10974 10974 10973 10971 10971 10970 10969 10969 10968 10967
10868 10868 10868 10868 10869 10869 10868 10869 10870 10870 10871 10873 10875 10876 10877 10878 10881 10885 10886 10887 10890 10892 10894 10898 10901 10902 10902 10904 10906 10910 10913 10912 10912 10916 10917 10919 10922 10923 10925 10926 10928 10930 10932 10934 10935 10936 10939 10941 10943 10944 10946 10947 10948 10950 10950 10949 10951 10955 10957 10959 10960 10962 10964 10964 10964 10964 10965 10964 10964 10965 10965 10967 10969 10968 10969 10970 10970 10971 10972 10973 10972 10971 10970 10969 10968 10968 10967 10967
10858 10858 10858 10859 10860 10860 10859 10860 10861 10861 10863 10863 10865 10867 10868 10869 10872 10877 10879 10878 10881 10884 10886 10892 10894 10892 10895 10897 10897 10902 10907 10906 10906 10909 10911 10912 10915 10918 10918 10920 10923 10924 10926 10928 10928 10931 10933 10936 10939 10940 10941 10941 10942 10944 10942 10943 10948 10952 10953 10955 10957 10959 10961 10961 10960 10961 10961 10961 10961 10962 10962 10964 10966 10966 10966 10967 10967 10968 10970 10971 10970 10969 10969 10968 10967 10967 10967 10967
10848 10848 10848 10848 10849 10849 10849 10850 10851 10852 10853 10853 10855 10857 10859 10860 10861 10868 10870 10868 10873 10876 10878 10885 10885 10883 10888 10889 10888 10895 10898 10897 10899 10902 10904 10906 10909 10912 10912 10914 10917 10918 10920 10920 10922 10926 10928 10932 10934 10932 10934 10936 10937 10939 10937 10940 10946 10948 10949 10951 10953 10955 10956 10956 10956 10957 10958 10957 10957 10958 10958 10959 10962 10963 10963 10964 10964 10966 10968 10969 10969 10968 10968 10966 10966 10966 10966 10966
10836 10837 10837 10837 10838 10839 10838 10839 10840 10841 10842 10844 10844 10846 10850 10851 10851 10857 10862 10860 10863 10867 10869 10875 10877 10876 10878 10880 10880 10885 10888 10889 10893 10895 10897 10900 10902 10905 10906 10907 10910 10911 10911 10913 10917 10921 10925 10927 10925 10924 10928 10931 10933 10934 10934 10937 10941 10943 10943 10944 10947 10950 10951 10951 10951 10952 10954 10954 10953 10954 10955 10955 10957 10959 10960 10961 10961 10963 10965 10967 10966 10966 10966 10965 10965 10965 10965 10964
10824 10824 10824 10824 10826 10827 10826 10827 10829 10829 10831 10833 10833 10834 10838 10841 10842 10846 10852 10854 10851 10854 10861 10864 10868 10868 10864 10869 10874 10875 10879 10882 10884 10888 10890 10893 10896 10897 10898 10900 10903 10903 10903 10909 10913 10917 10920 10916 10914 10919 10924 10927 10929 10930 10931 10933 10936 10937 10938 10939 10941 10943 10945 10946 10947 10947 10949 10950 10949 10950 10953 10951 10951 10954 10957 10958 10958 10960 10963 10964 10963 10963 10965 10964 10964 10963 10963 10962
10811 10811 10812 10811 10812 10814 10814 10814 10816 10817 10819 10821 10822 10824 10825 10829 10833 10835 10841 10847 10842 10842 10851 10853 10856 10858 10853 10858 10865 10866 10869 10872 10876 10881 10882 10885 10888 10888 10890 10893 10895 10895 10898 10905 10907 10910 10911 10905 10908 10916 10920 10923 10924 10925 10927 10928 10931 10933 10932 10933 10934 10936 10938 10941 10942 10942 10943 10945 10946 10947 10949 10948 10946 10949 10952 10954 10955 10956 10960 10962 10961 10960 10962 10962 10962 10962 10962 10961
10798 10798 10798 10797 10798 10800 10801 10801 10802 10805 10807 10808 10809 10812 10814 10817 10821 10825 10830 10838 10837 10830 10834 10841 10843 10848 10846 10843 10851 10860 10861 10861 10867 10873 10875 10876 10877 10878 10884 10886 10886 10889 10894 10897 10898 10902 10901 10899 10905 10913 10915 10917 10918 10920 10922 10923 10925 10927 10927 10928 10927 10928 10932 10935 10937 10937 10937 10939 10942 10943 10946 10946 10944 10945 10946 10948 10950 10952 10955 10959 10959 10958 10959 10960 10960 10960 10960 10960
10785 10785 10784 10784 10783 10785 10788 10788 10788 10791 10795 10796 10797 10799 10802 10804 10807 10815 10818 10825 10832 10822 10816 10828 10834 10833 10833 10831 10842 10852 10851 10851 10858 10864 10866 10867 10867 10870 10874 10877 10879 10884 10887 10887 10890 10895 10893 10895 10902 10906 10908 10910 10911 10914 10916 10918 10920 10921 10923 10923 10921 10923 10927 10929 10931 10933 10932 10934 10936 10938 10942 10944 10942 10941 10941 10943 10946 10948 10951 10955 10957 10957 10956 10956 10958 10959 10959 10960
10771 10770 10770 10771 10769 10770 10773 10775 10775 10778 10780 10783 10786 10787 10789 10793 10795 10801 10806 10811 10821 10813 10803 10813 10820 10819 10819 10823 10832 10838 10839 10846 10848 10850 10857 10859 10858 10860 10864 10871 10874 10876 10877 10876 10882 10889 10888 10891 10896 10898 10900 10903 10906 10909 10910 10912 10915 10916 10917 10916 10917 10920 10922 10924 10926 10927 10928 10929 10929 10932 10938 10939 10939 10938 10937 10939 10943 10944 10947 10950 10953 10955 10954 10953 10956 10957 10957 10958
10756 10754 10755 10756 10756 10757 10758 10760 10763 10764 10766 10769 10773 10776 10777 10781 10783 10787 10793 10797 10801 10800 10797 10798 10803 10807 10807 10810 10820 10826 10832 10838 10834 10838 10850 10850 10848 10850 10856 10863 10866 10866 10867 10868 10878 10885 10881 10881 10888 10891 10893 10896 10900 10902 10903 10906 10910 10910 10910 10911 10914 10916 10918 10919 10920 10921 10923 10922 10923 10927 10932 10934 10935 10936 10935 10935 10938 10940 10943 10946 10949 10952 10952 10951 10953 10955 10955 10956
10740 10739 10739 10740 10742 10743 10743 10745 10747 10748 10753 10755 10758 10763 10765 10768 10772 10774 10777 10782 10782 10785 10789 10786 10786 10793 10794 10799 10809 10814 10820 10823 10822 10826 10835 10837 10838 10841 10847 10853 10856 10856 10856 10863 10874 10874 10868 10872 10881 10883 10885 10890 10894 10894 10896 10901 10904 10904 10904 10908 10910 10911 10914 10913 10914 10917 10917 10917 10920 10923 10926 10929 10932 10933 10932 10931 10933 10936 10939 10941 10945 10948 10949 10949 10951 10952 10953 10954
10724 10724 10723 10724 10726 10727 10728 10731 10731 10732 10736 10740 10743 10748 10752 10755 10760 10761 10761 10767 10766 10765 10773 10775 10773 10777 10783 10790 10797 10800 10806 10812 10813 10813 10818 10829 10831 10832 10839 10844 10844 10845 10848 10858 10866 10861 10859 10867 10873 10876 10880 10885 10886 10887 10892 10897 10898 10897 10901 10904 10905 10906 10908 10908 10909 10911 10910 10914 10917 10916 10919 10925 10927 10927 10928 10927 10929 10932 10934 10936 10941 10944 10946 10947 10949 10951 10952 10953
10709 10709 10708 10709 10710 10710 10713 10714 10716 10718 10719 10723 10726 10729 10736 10740 10744 10745 10747 10752 10747 10742 10754 10761 10760 10766 10772 10779 10784 10787 10793 10799 10801 10800 10805 10819 10823 10822 10829 10831 10832 10838 10842 10850 10857 10854 10853 10859 10865 10871 10876 10878 10878 10881 10887 10892 10891 10891 10896 10898 10899 10901 10902 10903 10904 10905 10907 10912 10910 10907 10911 10918 10921 10922 10922 10923 10925 10926 10928 10932 10938 10942 10944 10945 10946 10948 10950 10951
10694 10694 10693 10693 10693 10693 10696 10697 10699 10702 10704 10707 10708 10712 10718 10721 10726 10730 10730 10735 10725 10718 10732 10743 10751 10762 10762 10764 10774 10778 10781 10784 10788 10792 10797 10806 10811 10813 10816 10820 10826 10832 10836 10844 10851 10848 10845 10852 10862 10867 10868 10868 10870 10876 10882 10884 10883 10886 10890 10891 10893 10896 10896 10898 10900 10901 10905 10904 10900 10899 10904 10911 10916 10915 10912 10916 10919 10920 10924 10930 10935 10939 10942 10943 10944 10945 10947 10949
10678 10677 10677 10676 10676 10676 10678 10678 10680 10684 10687 10690 10692 10696 10699 10701 10709 10712 10712 10713 10699 10694 10714 10731 10745 10756 10753 10756 10765 10766 10770 10772 10774 10783 10789 10792 10798 10803 10807 10813 10818 10822 10830 10837 10839 10837 10838 10846 10853 10855 10857 10859 10863 10870 10874 10876 10877 10880 10883 10885 10887 10890 10892 10894 10896 10897 10897 10894 10894 10897 10900 10910 10914 10906 10905 10912 10915 10916 10921 10927 10931 10935 10939 10942 10942 10943 10945 10946
10662 10660 10659 10659 10658 10658 10658 10658 10661 10664 10667 10672 10675 10678 10681 10685 10690 10691 10692 10685 10671 10683 10709 10721 10735 10745 10743 10747 10750 10749 10756 10758 10758 10766 10775 10779 10784 10790 10795 10800 10804 10811 10820 10822 10820 10824 10829 10833 10839 10846 10851 10853 10856 10864 10868 10870 10871 10873 10877 10879 10882 10885 10887 10889 10891 10891 10890 10889 10892 10895 10899 10907 10906 10901 10906 10912 10912 10913 10919 10924 10928 10932 10936 10939 10941 10942 10944 10944
10645 10642 10640 10640 10640 10639 10639 10639 10641 10643 10646 10651 10656 10660 10664 10667 10668 10669 10667 10653 10654 10685 10703 10704 10718 10728 10729 10733 10733 10733 10739 10740 10741 10748 10757 10765 10770 10777 10784 10789 10796 10803 10807 10806 10809 10817 10820 10825 10836 10843 10845 10846 10850 10857 10861 10861 10863 10867 10871 10872 10876 10879 10881 10884 10885 10885 10885 10886 10889 10894 10897 10898 10897 10899 10904 10908 10910 10913 10917 10921 10925 10929 10933 10936 10939 10941 10941 10942
10629 10625 10621 10621 10621 10620 10619 10620 10621 10623 10626 10630 10637 10642 10645 10647 10649 10645 10635 10629 10647 10678 10686 10690 10704 10709 10712 10718 10716 10715 10718 10720 10725 10731 10740 10752 10760 10767 10773 10778 10785 10791 10793 10797 10806 10811 10814 10824 10832 10831 10833 10838 10842 10847 10850 10851 10856 10860 10863 10867 10873 10874 10874 10878 10881 10881 10882 10884 10888 10891 10891 10888 10891 10897 10900 10904 10909 10911 10914 10918 10922 10925 10930 10934 10937 10939 10940 10941
10612 10608 10603 10601 10602 10601 10600 10600 10601 10602 10605 10609 10617 10623 10624 10626 10626 10617 10610 10619 10643 10665 10674 10682 10687 10687 10694 10698 10694 10695 10696 10696 10703 10713 10727 10740 10750 10757 10761 10765 10772 10776 10781 10790 10797 10801 10807 10817 10820 10818 10824 10832 10836 10839 10841 10845 10851 10854 10858 10866 10868 10865 10868 10875 10877 10877 10879 10881 10884 10885 10883 10883 10889 10893 10895 10899 10904 10907 10911 10914 10917 10922 10927 10931 10935 10936 10939 10940
10594 10592 10586 10583 10583 10582 10581 10580 10580 10582 10584 10588 10595 10600 10602 10604 10604 10598 10599 10616 10638 10652 10662 10667 10664 10667 10676 10678 10675 10673 10669 10672 10686 10705 10719 10728 10735 10741 10747 10751 10756 10762 10772 10778 10783 10788 10797 10805 10806 10809 10818 10825 10828 10829 10831 10838 10844 10849 10857 10860 10857 10858 10866 10873 10873 10874 10875 10876 10878 10877 10877 10880 10886 10889 10891 10894 10899 10903 10906 10908 10913 10919 10924 10928 10931 10933 10937 10938
10577 10575 10570 10565 10564 10562 10561 10560 10559 10561 10563 10566 10572 10577 10581 10583 10583 10584 10590 10606 10621 10628 10638 10645 10644 10650 10657 10657 10654 10650 10654 10670 10687 10699 10705 10709 10716 10722 10727 10734 10739 10748 10758 10762 10768 10777 10787 10792 10794 10801 10809 10814 10817 10818 10823 10834 10841 10847 10853 10850 10850 10858 10865 10868 10870 10870 10870 10870 10871 10871 10872 10877 10882 10884 10885 10890 10896 10898 10900 10904 10910 10916 10921 10925 10927 10929 10933 10934
10559 10558 10553 10548 10546 10543 10542 10540 10538 10539 10541 10544 10548 10553 10558 10561 10563 10567 10572 10584 10596 10603 10614 10622 10623 10630 10636 10636 10633 10635 10651 10668 10673 10679 10685 10690 10698 10703 10709 10720 10726 10731 10740 10748 10758 10769 10778 10782 10786 10796 10801 10801 10805 10812 10822 10835 10838 10842 10846 10845 10849 10857 10859 10862 10865 10864 10864 10865 10865 10866 10869 10873 10876 10878 10882 10889 10893 10895 10898 10902 10906 10911 10916 10919 10921 10924 10928 10930
10542 10539 10536 10532 10529 10526 10524 10522 10520 10520 10521 10523 10525 10529 10535 10539 10542 10545 10549 10560 10575 10584 10593 10598 10602 10610 10615 10616 10618 10625 10642 10652 10655 10667 10677 10678 10681 10687 10697 10707 10711 10721 10737 10749 10758 10765 10772 10776 10780 10787 10788 10788 10802 10816 10825 10831 10832 10835 10839 10841 10846 10851 10853 10856 10859 10859 10861 10861 10860 10862 10865 10868 10872 10878 10882 10887 10890 10892 10895 10899 10902 10905 10908 10911 10914 10917 10921 10924
10526 10521 10518 10515 10513 10511 10509 10506 10504 10503 10503 10504 10506 10509 10514 10517 10520 10523 10530 10542 10555 10564 10572 10578 10584 10590 10593 10598 10604 10611 10627 10639 10645 10659 10664 10657 10659 10671 10684 10693 10700 10717 10734 10742 10751 10758 10762 10768 10773 10776 10778 10788 10807 10816 10816 10818 10823 10826 10830 10834 10839 10842 10845 10849 10853 10855 10855 10855 10856 10857 10859 10863 10871 10876 10878 10881 10884 10887 10890 10894 10897 10900 10903 10906 10909 10912 10915 10920
10513 10507 10503 10499 10497 10496 10494 10491 10490 10489 10488 10489 10489 10492 10497 10498 10499 10505 10513 10522 10531 10540 10551 10558 10562 10566 10572 10579 10585 10594 10613 10625 10629 10641 10644 10634 10636 10655 10674 10685 10695 10711 10721 10727 10737 10741 10742 10753 10761 10762 10772 10790 10801 10801 10801 10806 10813 10816 10820 10826 10831 10834 10839 10845 10848 10849 10849 10849 10850 10851 10854 10862 10869 10870 10871 10875 10880 10882 10886 10890 10892 10894 10898 10902 10905 10908 10912 10915
10500 10495 10492 10487 10483 10483 10481 10477 10476 10476 10475 10475 10475 10477 10481 10482 10483 10488 10494 10501 10509 10519 10530 10535 10537 10543 10550 10558 10569 10585 10604 10611 10614 10626 10629 10616 10620 10646 10669 10679 10688 10701 10710 10717 10724 10724 10726 10740 10751 10755 10768 10783 10786 10787 10792 10796 10803 10810 10815 10822 10828 10831 10836 10840 10841 10842 10843 10844 10845 10847 10851 10859 10864 10865 10868 10873 10877 10879 10883 10885 10886 10889 10892 10897 10900 10903 10908 10910
10489 10484 10481 10477 10473 10471 10469 10466 10464 10464 10463 10462 10461 10463 10466 10468 10470 10473 10477 10483 10492 10501 10509 10513 10516 10523 10530 10543 10561 10579 10592 10599 10605 10615 10612 10597 10606 10639 10659 10665 10674 10686 10696 10705 10712 10716 10724 10738 10750 10754 10761 10770 10774 10779 10785 10790 10800 10810 10813 10818 10826 10828 10830 10833 10835 10838 10839 10839 10841 10844 10847 10854 10860 10862 10865 10870 10872 10875 10878 10880 10882 10884 10887 10891 10895 10899 10905 10907
10479 10475 10471 10467 10464 10461 10458 10455 10453 10453 10453 10451 10450 10450 10453 10455 10458 10460 10463 10469 10477 10484 10490 10495 10499 10507 10515 10529 10548 10561 10574 10586 10593 10596 10589 10580 10599 10633 10649 10657 10666 10674 10686 10698 10705 10711 10720 10731 10741 10746 10750 10760 10770 10777 10784 10790 10798 10806 10809 10814 10820 10822 10824 10828 10831 10835 10836 10836 10838 10840 10843 10850 10856 10858 10862 10866 10869 10872 10874 10875 10876 10879 10882 10887 10891 10897 10902 10903
10470 10467 10462 10458 10454 10451 10449 10446 10444 10443 10442 10441 10440 10439 10440 10443 10446 10448 10451 10456 10463 10469 10474 10480 10485 10491 10499 10511 10528 10542 10555 10570 10576 10574 10568 10569 10595 10628 10645 10655 10662 10669 10683 10693 10695 10701 10711 10719 10731 10740 10746 10755 10765 10772 10776 10778 10784 10794 10802 10807 10812 10816 10818 10822 10827 10831 10832 10833 10834 10835 10838 10846 10850 10853 10858 10862 10865 10867 10869 10870 10872 10874 10878 10883 10889 10893 10896 10898
10462 10459 10456 10451 10446 10442 10439 10437 10435 10433 10432 10431 10430 10429 10430 10433 10435 10437 10440 10445 10451 10456 10461 10467 10471 10477 10484 10494 10511 10526 10539 10553 10559 10555 10552 10564 10592 10621 10636 10643 10649 10660 10674 10679 10682 10693 10701 10708 10721 10734 10740 10745 10753 10760 10761 10763 10774 10787 10794 10799 10804 10808 10812 10817 10823 10826 10827 10829 10830 10830 10834 10841 10845 10848 10852 10856 10859 10862 10864 10866 10868 10870 10874 10880 10884 10886 10888 10893
10455 10451 10448 10445 10440 10435 10432 10429 10426 10424 10423 10422 10422 10420 10421 10424 10425 10428 10431 10434 10439 10444 10450 10455 10459 10465 10472 10480 10494 10508 10521 10536 10541 10537 10542 10560 10586 10609 10622 10626 10635 10650 10659 10663 10671 10682 10688 10698 10713 10723 10727 10730 10738 10748 10754 10761 10772 10781 10787 10793 10798 10801 10807 10813 10816 10818 10822 10826 10826 10826 10830 10836 10840 10842 10845 10849 10854 10858 10861 10862 10865 10868 10871 10876 10878 10879 10882 10888
10448 10444 10441 10438 10433 10429 10426 10423 10419 10417 10415 10414 10414 10413 10413 10416 10417 10419 10422 10426 10430 10434 10440 10444 10448 10454 10460 10467 10479 10490 10503 10516 10521 10524 10536 10554 10576 10596 10609 10615 10628 10641 10647 10650 10659 10671 10682 10695 10705 10710 10713 10717 10726 10740 10750 10757 10764 10772 10780 10787 10791 10796 10802 10806 10807 10811 10817 10820 10821 10823 10825 10830 10835 10837 10837 10843 10851 10855 10857 10860 10862 10864 10867 10870 10872 10874 10878 10883
10442 10438 10434 10430 10426 10424 10421 10417 10413 10411 10409 10407 10408 10407 10407 10409 10411 10412 10414 10418 10421 10425 10429 10433 10438 10444 10449 10456 10465 10475 10488 10500 10508 10517 10530 10546 10566 10586 10600 10608 10618 10627 10633 10639 10652 10668 10679 10684 10689 10697 10705 10713 10725 10737 10745 10752 10760 10767 10773 10778 10784 10791 10795 10797 10801 10806 10812 10815 10816 10819 10822 10825 10831 10832 10832 10838 10846 10851 10854 10858 10859 10859 10862 10866 10868 10871 10875 10880
10437 10433 10430 10424 10420 10418 10415 10411 10408 10405 10403 10402 10402 10401 10401 10402 10404 10405 10407 10410 10414 10417 10421 10425 10430 10436 10441 10447 10453 10462 10476 10488 10497 10508 10521 10536 10556 10577 10590 10596 10603 10614 10624 10633 10647 10662 10669 10673 10683 10694 10703 10714 10723 10730 10737 10746 10752 10756 10763 10773 10782 10788 10790 10793 10797 10802 10807 10810 10811 10815 10819 10820 10824 10829 10829 10832 10840 10847 10850 10852 10854 10855 10859 10862 10863 10866 10872 10877
10432 10429 10425 10420 10416 10413 10410 10407 10403 10400 10399 10398 10397 10396 10395 10397 10398 10399 10401 10404 10407 10410 10414 10418 10423 10428 10432 10438 10444 10453 10466 10477 10487 10499 10513 10529 10549 10569 10580 10585 10594 10606 10615 10624 10639 10653 10660 10670 10681 10688 10696 10706 10712 10717 10726 10734 10741 10750 10762 10772 10778 10782 10785 10787 10791 10797 10801 10804 10807 10811 10814 10814 10818 10824 10826 10826 10833 10842 10845 10846 10850 10853 10855 10858 10859 10862 10868 10873